STARLINK-37396, 69256

Orbit data source: Space-Track

STARLINK-37396, 69256 is a payload satellite owned by SpaceX/Seattle (US) in LEO that was launched on Sat, 30 May 2026 UTC via an FALCON 9 launch vehicle from the Air Force Eastern Test Range (AFETR). Payload-class satellites include a variety of spacecraft equipped with specific instruments for various scientific and technological missions. These include communications satellites like Starlink; space stations such as the ISS; scientific satellites like the Hubble; Earth observation satellites from companies like Planet Labs, Umbra, and HawkEye 360; GPS; miniature CubeSats for education and research; and military/defense satellites.

Not visible in the next 10 days
Identifier
69256, 2026-117U
Orbit
LEO
Country
Flag of USUS
Related business
Manufacturer
SpaceX/Seattle
Mission
Operational spacecraft
Bus & Motor
STARLINK V2MO, Unknown motor
Mass
575 kg wet, ~530 kg dry
Launch date (UTC)
2026-05-30 (2 weeks ago)
Launch vehicle
FALCON 9
Launch site
Air Force Eastern Test Range (AFETR)
Object type
Payload
Rocket body
Debris
Shape & HBR
Unknown
Radar Cross Section
RCS unknown

Expand to show TLE details & history
Last TLE update: 6 days ago

TLE from 6 days ago
0 STARLINK-37396
1 69256U 26117U   26155.25004630 -.01928892  12060-2 -24341-2 0  9992
2 69256  53.1582 308.6822 0000367   7.4298  40.7742 16.06980645  2167
Epoch: 2026-06-04T06:00Z
TLE epoch observation values (Epoch: 2026-06-04T06:00:04.000Z)
Latitude
36.75412°
Longitude
-0.22563°
Altitude
257.868 km
Speed
7.757 km/s
True Right ascension
22h 49m 57s
True Declination
36° 34' 37"
Sunlit
Object was in daylight at epoch
Visualization orbit readout
Latitude
Unknown
Longitude
Unknown
Altitude
Unknown
Speed
Unknown
Apparent Right ascension
Unknown
Apparent Declination
Unknown
Sunlit
N/A
Visualization observer readout
Local Sidereal Time
14:08:13
Azimuth
Unknown
Elevation
Unknown
Doppler factor
Unknown
Orbital elements
Apogee altitude
255.648 km
Perigee altitude
255.161 km
Semi-major axis
6,633.541 km
Eccentricity
0.00004
Inclination
53.1582°
RAAN
308.6822°
Arg. of periapsis
7.4298°
True anomaly
40.77695°
Mean anomaly
40.7742°
Eccentric anomaly
40.77557°
Mean motion
4.01721 °/min
Orbital period
89.61 mins
BSTAR
-0.0024341
Loading maneuver chart data...
Computing Atmospheric mass density...
Loading historical data...
Loading historical data...
Loading historical data...
Loading historical data...
Loading historical data...
Loading historical data...
Loading historical data...

Documentation

Showing up to 5 results
|